Location: Crescent
(42.8242°N, 73.7329°W)
Time: 23:45:19
(UTC+00:00)

Explorer 7 - Pass Details

Date: 19 February 2026
Orbit: 430 x 541 km, 50.2° (Epoch: 9 March)

Event Time Altitude Azimuth Distance (km) Brightness Sun altitude
Rises 02:05:42 0° 294° (WNW) 2,572 11.1 -39.4°
Enters shadow 02:06:52 - 290° (WNW) 2,122 10.6 -39.6°
Reaches altitude 10° 02:07:59 10° 285° (WNW) 1,708 - -39.8°
Maximum altitude 02:11:28 32° 221° (SW) 896 - -40.4°
Drops below altitude 10° 02:15:03 10° 157° (SSE) 1,756 - -41.0°
Sets 02:17:26 0° 148° (SSE) 2,657 - -41.4°
